User: anonymous   Login
Location: Spruce Knob
(38.6995°N, 79.5330°W)
Time: 05:28:42
(UTC-04:00)
Language:

PCSat - Orbit

View from above orbital plane
View from above orbital plane
View from above satellite
View from above satellite

Ground track
Ground track

The orbit data is extracted from the following two-line orbital elements,

1 26931U 01043C   24111.20526183  .00000692  00000-0  29306-3 0  9995
2 26931  67.0487 121.3416 0006234 282.0043  78.0359 14.31181340177819
Epoch (UTC): 20 April 2024 04:55:34
Eccentricity: 0.0006234
inclination: 67.0487°
perigee height: 783 km
apogee height: 792 km
right ascension of ascending node: 121.3416°
argument of perigee: 282.0043°
revolutions per day: 14.31181340
mean anomaly at epoch: 78.0359°
orbit number at epoch: 17781

The dashed part of the orbit path shows where the satellite is in the earth's shadow,  

DLR